Location: Putah Creek Observatory
(38.7021°N, 122.3865°W)
Time: 18:54:22
(UTC-07:00)

Daily predictions for brighter satellites

Satellite Brightness Start Highest point End
(mag) Time Altitude Azimuth Time Altitude Azimuth Time Altitude Azimuth
USA 186 2.7 21:11:43 10° SSW 21:13:49 31° W 21:15:51 10° NNW
Meteor 1-29 3.3 21:10:36 10° NNE 21:13:56 44° E 21:17:15 10° S
Cosmos 2263 Rocket 3.9 21:12:15 10° ESE 21:14:03 12° E 21:15:50 10° ENE
ATLAS 5 CENTAUR R/B 2.2 21:10:29 10° SW 21:15:04 68° NW 21:20:05 10° NNE
Cosmos 1356 Rocket 4.0 21:11:09 10° SSE 21:15:07 40° E 21:19:08 10° NNE
Abrixas rocket 4.4 21:13:43 10° NW 21:16:12 20° NNE 21:18:40 10° ENE
Resurs 01 Rocket 3.1 21:13:06 10° SSW 21:17:09 36° W 21:21:14 10° NNW
Lacrosse 5 3.0 21:12:34 10° NNW 21:17:10 33° NE 21:21:44 10° ESE
Envisat 3.1 21:13:40 10° S 21:18:44 80° WSW 21:23:50 10° NNW
CZ-3B R/B 3.6 21:18:27 10° SSW 21:20:59 50° ESE 21:28:03 10° NE
RESURS DK-1 3.7 21:24:49 10° N 21:28:25 27° ENE 21:31:40 12° ESE
Meteor 1-21 Rocket 4.3 21:22:56 10° S 21:28:30 58° E 21:33:58 10° NNE
SAR-Lupe-4 3.5 21:27:49 10° SSE 21:31:24 74° ENE 21:34:58 10° N
Cosmos 2208 Rocket 4.1 21:27:28 10° NNW 21:32:50 78° ENE 21:38:13 10° SSE
Cosmos 1459 Rocket 4.1 21:27:54 10° N 21:34:07 60° E 21:40:12 10° SSE
Cosmos 1674 2.6 21:32:39 10° S 21:36:25 78° E 21:40:10 10° N
Cosmos 2237 Rocket 4.1 21:32:26 10° NW 21:37:02 26° WSW 21:41:36 10° SSW
Cosmos 1340 Rocket 4.2 21:34:00 10° SSW 21:37:49 41° WNW 21:41:42 10° N
Cosmos 1939 Rocket 3.6 21:36:45 10° S 21:40:39 53° W 21:44:40 10° NNW
Cosmos 1570 Rocket 4.2 21:37:53 10° NNW 21:43:12 77° WSW 21:48:25 10° SSE
Cosmos 2100 Rocket 4.0 21:36:51 10° N 21:43:12 77° E 21:49:33 10° S
Cosmos 1076 Rocket 3.5 21:39:30 10° S 21:43:53 90° NE 21:48:15 10° N
Cosmos 1242 Rocket 2.5 21:40:57 10° N 21:44:41 83° E 21:48:01 12° S
Cosmos 1603 4.1 21:41:08 10° NNW 21:46:39 50° ENE 21:50:55 16° SE
MetOp-A 4.4 21:42:06 13° SSE 21:46:45 55° ENE 21:51:58 10° N
Terra 3.9 21:46:41 10° E 21:48:47 13° ENE 21:50:53 10° NE
SAR-Lupe-1 4.3 21:47:29 11° S 21:50:56 72° W 21:54:32 10° NNW
ARGOS 3.6 21:46:57 15° SE 21:51:10 47° ENE 21:56:20 10° N
Cosmos 2173 Rocket 4.0 21:45:00 10° N 21:51:12 82° E 21:57:28 10° S
Cosmos 1908 3.3 21:47:22 10° N 21:51:15 76° W 21:54:55 11° S
Cosmos 2123 Rocket 4.3 21:45:41 10° SSE 21:51:26 45° E 21:57:17 10° NNE
Cosmos 1408 Rocket 3.5 21:48:13 10° S 21:52:28 68° E 21:56:47 10° NNE
Cosmos 332 Rocket 4.3 21:48:27 10° N 21:53:09 45° ENE 21:56:25 19° SE
Cosmos 2061 Rocket 4.1 21:47:22 10° N 21:53:48 79° E 22:00:00 11° S
Cosmos 2151 4.4 21:55:59 18° ESE 21:57:24 21° E 22:00:37 10° NE
KORONAS-FOTON 3.7 21:53:37 10° S 21:57:25 86° W 22:01:13 10° N
Tiangong 1 2.3 21:57:43 10° WNW 22:00:20 34° N 22:02:40 12° ENE
Cosmos 1943 4.2 21:55:23 10° N 22:00:28 33° ENE 22:04:01 17° ESE
Cosmos 2221 3.6 21:56:31 10° NNW 22:00:42 44° W 22:04:52 10° SSW
SL-16 R/B 3.3 21:57:51 10° NW 22:03:06 39° WSW 22:08:18 10° S
Cosmos 468 Rocket 3.9 22:00:01 10° NNW 22:05:10 73° ENE 22:08:36 21° SSE
ERS-1 Rocket 3.1 22:01:48 13° S 22:06:14 78° WSW 22:11:18 10° NNW
USA 234 3.3 22:01:16 10° NE 22:07:40 55° SE 22:14:02 10° SSW
Abrixas 2.1 22:07:04 10° SW 22:09:44 59° SE 22:11:56 14° ENE
Cosmos 1500 Rocket 4.2 22:11:28 25° SE 22:13:28 39° E 22:17:37 10° NNE
Cosmos 1725 Rocket 4.1 22:09:29 10° N 22:15:42 63° E 22:19:46 22° SSE
Cosmos 1802 Rocket 4.2 22:12:57 10° NNW 22:19:03 70° W 22:24:33 13° S
Cosmos 1703 4.3 22:23:54 27° ESE 22:24:20 28° E 22:27:45 10° NNE
ERBS 2.4 22:28:16 10° NW 22:31:39 68° NE 22:32:23 49° ESE
H-2A R/B 2.1 22:29:11 28° SSE 22:32:02 72° ENE 22:37:28 10° N
Cosmos 1626 2.8 22:33:18 35° E 22:33:29 35° E 22:36:54 10° NNE
Cosmos 1328 Rocket 3.5 22:31:49 10° N 22:36:10 80° W 22:38:07 32° S
Cosmos 1726 2.9 22:35:28 10° NNW 22:38:59 46° W 22:40:39 26° SSW
Cosmos 1151 Rocket 3.2 22:34:44 10° N 22:39:05 58° E 22:40:20 41° SE
Meteor 2-10 4.2 22:34:09 10° N 22:39:49 83° W 22:43:04 27° S
GPS 2-05 Rocket1 4.1 22:38:36 10° WSW 22:40:09 25° SW 22:40:09 25° SW
Cosmos 371 Rocket 3.4 22:37:42 10° NNW 22:42:32 73° WSW 22:44:36 34° S
Meteor 1-11 4.2 22:39:46 24° S 22:43:22 77° E 22:49:12 10° NNE
Cosmos 1515 Rocket 3.4 22:39:09 10° N 22:43:31 88° E 22:44:59 41° S
USA 245 3.9 22:42:49 31° SSW 22:44:08 48° W 22:48:13 10° NNW
CZ-4C R/B 3.4 22:45:00 22° E 22:45:00 22° E 22:48:25 10° ENE
H-2A R/B 3.0 22:44:58 30° E 22:45:49 33° ENE 22:49:37 10° N
Cosmos 1356 3.3 22:45:56 62° S 22:46:27 83° E 22:49:57 10° N
Cosmos 1743 Rocket 3.9 22:44:08 21° SSW 22:46:53 60° W 22:51:10 10° N
Delta 2 Rocket 4.1 22:42:14 10° WSW 22:47:53 60° S 22:51:00 27° ESE
Cosmos 1300 3.5 22:45:53 10° NNW 22:49:34 46° W 22:51:00 30° SSW
Abrixas rocket 2.1 22:50:03 10° NW 22:53:13 81° N 22:53:13 81° N
SPOT 5 3.7 22:54:06 24° SSW 22:56:42 44° W 23:01:34 10° NNW
Cosmos 2263 Rocket 2.2 22:52:22 14° SSW 22:57:07 82° WNW 23:02:45 10° NNE
Cosmos 2228 Rocket 3.8 22:53:13 10° NNW 22:57:40 50° W 22:59:40 29° SSW
Lacrosse 5 2.5 22:55:26 10° NW 23:00:12 42° SW 23:01:33 35° SSW
Meteor 1-27 4.2 22:54:57 10° N 23:00:46 90° W 23:03:04 39° S
Cosmos 2058 2.9 23:00:15 46° SSW 23:01:26 79° W 23:05:40 10° N
Cosmos 1354 Rocket 3.9 23:01:23 35° S 23:03:40 82° ESE 23:08:55 10° NNE
Cosmos 2233 Rocket 3.9 23:00:02 10° N 23:06:15 83° W 23:08:57 36° S
RESURS DK-1 4.1 23:03:00 10° NW 23:06:19 23° WSW 23:07:35 20° SW
Landsat 7 4.0 23:09:37 44° SSW 23:10:59 66° WSW 23:15:44 10° NNW
Meteor 2-12 Rocket 4.3 23:06:33 10° N 23:12:38 87° W 23:14:55 41° S
Cosmos 841 Rocket 3.7 23:08:43 10° NNW 23:13:54 61° WSW 23:15:25 43° SSW
Cosmos 1763 Rocket 4.1 23:09:32 10° NNW 23:14:23 45° WSW 23:16:01 34° SSW
DMSP B5D2-2 4.5 23:12:46 10° N 23:17:55 60° WNW 23:20:43 26° SW
Cosmos 1455 2.2 23:18:48 10° N 23:22:25 77° NNE 23:22:25 77° NNE
Terra 1.9 23:25:03 54° SSW 23:25:55 67° WSW 23:30:40 10° NNW
Sich 1 3.5 23:28:20 47° ENE 23:28:20 47° ENE 23:31:57 10° NNE
Cosmos 1844 Rocket 3.3 23:30:41 38° E 23:30:41 38° E 23:35:27 10° NE
Tiangong 1 3.8 23:33:18 10° WNW 23:33:48 14° WNW 23:33:48 14° WNW
CZ-4 R/B 3.8 23:32:40 10° N 23:37:31 81° WNW 23:38:13 64° SW
Cosmos 304 Rocket 3.9 23:36:19 10° NNW 23:41:02 61° WSW 23:41:23 59° SW
Cosmos 1513 Rocket 4.4 23:37:09 10° N 23:43:21 72° E 23:44:34 56° SE
deb Chang Zheng 4 4.0 23:39:10 10° N 23:43:29 59° WNW 23:44:04 53° WSW
Cosmos 1869 3.7 23:39:39 10° N 23:42:55 57° NNE 23:42:55 57° NNE
Cosmos 1943 4.3 23:39:27 10° NW 23:44:27 33° WSW 23:45:50 29° SW
ARGOS Delta rocket 4.3 23:40:03 10° NNE 23:44:56 49° E 23:44:56 49° E
Cosmos 1707 Rocket 3.5 23:41:02 10° N 23:45:23 83° NNE 23:45:23 83° NNE
ALOS 2 4.3 23:46:34 21° ENE 23:46:34 21° ENE 23:49:52 10° NNE
USA 234 4.3 23:44:24 10° NE 23:50:32 44° NNW 23:56:40 10° WSW
DELTA 2 DEB (DPAF) 4.1 23:52:45 82° NNW 23:52:45 82° NNW 23:57:03 10° NNW
Cosmos 1400 Rocket 4.1 23:55:19 34° NE 23:55:19 34° NE 23:58:04 10° NNE
CZ-4C R/B 3.6 23:55:04 74° N 23:55:04 74° N 23:59:07 10° NNW
